Theta_e
295 297 300 305 306 308 309 311 314 316 319 326 321 317 315 318 319 320 322 328 333 335 333 330 328 328 326 327 326 325 323 321 321 321 321 322 322 323 323 323 324 324 324
293 295 298 300 301 306 308 311 313 314 316 323 321 318 315 317 318 319 321 323 330 333 334 330 329 329 327 327 326 324 322 321 321 321 321 321 322 322 322 322 323 323 323
292 293 296 297 299 304 307 308 310 314 314 316 320 318 314 317 318 318 320 321 325 328 331 331 329 330 329 328 326 324 323 321 321 320 320 321 321 321 321 321 322 322 322
292 292 294 295 299 301 304 305 306 309 312 314 316 317 315 317 317 318 319 319 320 321 328 331 331 331 329 329 326 325 323 321 321 320 319 320 320 320 320 320 321 322 322
291 291 293 295 297 299 301 303 303 306 309 313 315 318 315 316 316 318 317 317 318 319 319 327 328 329 329 328 328 327 325 322 321 320 320 320 319 319 319 319 320 321 321
290 290 291 292 294 295 296 298 300 302 305 311 315 315 315 316 316 316 315 317 316 317 317 318 320 323 326 327 328 328 327 324 322 321 321 320 319 318 318 319 319 320 321
288 289 289 289 291 292 293 295 297 297 305 308 311 312 312 314 315 315 314 312 314 315 315 316 317 318 322 326 326 327 328 327 324 322 321 321 320 318 318 318 319 320 321
287 288 287 288 289 291 290 292 293 295 300 302 305 309 307 311 314 314 313 313 311 312 313 314 315 315 315 318 318 325 327 327 327 325 323 322 321 319 318 318 318 319 320
286 286 286 286 286 288 288 289 291 293 294 299 299 306 304 303 305 310 311 312 312 311 310 311 313 313 313 315 318 319 322 324 326 327 325 323 322 320 319 318 318 319 319
284 285 285 285 285 286 286 288 290 292 294 294 299 301 303 308 304 303 308 309 311 311 311 309 309 311 311 311 313 314 316 320 323 326 327 325 324 322 320 319 318 319 319
282 283 283 283 284 284 285 286 287 288 292 293 295 296 300 303 307 304 301 304 307 309 311 311 309 308 309 309 309 311 316 320 322 323 326 327 326 324 322 320 319 318 317
280 280 281 281 282 283 283 284 285 288 289 292 294 295 296 296 296 299 301 303 304 307 308 309 310 309 308 307 309 311 314 319 322 323 323 326 327 325 323 322 320 317 315
278 279 279 280 280 281 283 284 284 286 287 288 289 292 294 296 298 299 298 298 302 305 306 306 310 310 310 308 308 309 311 316 320 322 324 324 325 325 324 322 319 317 312
277 278 278 279 279 280 281 282 283 284 285 287 288 290 292 294 295 296 296 294 294 302 304 306 308 310 310 311 311 308 310 313 317 320 322 324 323 323 322 321 317 316 310
279 277 278 278 278 279 280 280 281 281 283 284 286 287 289 291 293 294 296 297 295 292 294 306 306 308 309 310 310 310 309 310 314 316 318 319 319 319 319 317 317 313 309
277 277 277 277 277 278 278 279 279 280 281 282 285 285 286 288 291 293 295 296 297 296 294 299 302 306 307 308 309 309 310 307 311 314 315 316 316 316 315 315 314 311 308
276 276 276 277 277 277 278 277 278 279 279 280 282 283 284 286 288 289 290 293 293 294 292 296 298 304 304 306 306 308 309 308 309 310 314 315 315 314 313 313 311 310 308
276 276 276 276 276 276 277 276 277 278 278 279 280 281 283 285 285 287 288 289 291 293 291 290 295 297 302 304 305 305 306 307 308 309 311 314 314 313 312 311 309 308 307
275 275 275 275 275 276 276 276 276 277 278 279 280 281 282 283 283 284 286 287 289 290 291 292 293 297 299 299 300 301 301 304 305 306 310 312 313 313 311 310 308 307 306
274 274 274 274 276 275 276 276 278 278 278 280 281 282 282 282 282 282 284 285 287 288 290 289 291 293 297 298 297 298 298 298 301 302 305 307 310 311 311 310 307 304 303
274 274 274 274 274 275 276 277 279 279 279 279 280 281 282 283 285 285 285 285 286 286 286 287 287 290 293 295 296 298 297 297 296 298 299 302 306 308 308 308 304 302 302
274 274 273 273 273 275 278 280 281 280 280 279 279 279 280 282 283 286 286 287 287 286 285 285 287 288 289 293 296 297 298 293 294 297 296 298 299 300 299 301 303 302 302
272 272 272 272 272 273 278 280 282 279 279 279 279 279 280 282 282 281 284 287 288 289 290 289 288 289 290 293 295 296 297 296 296 297 292 290 292 295 294 296 302 302 301
271 271 271 272 272 273 278 280 281 279 278 278 279 279 279 279 280 282 283 283 284 286 287 288 290 292 293 293 293 295 296 297 294 292 293 288 287 288 288 291 301 301 300
270 270 272 271 271 272 277 279 279 277 277 278 279 279 279 279 282 284 282 281 281 283 287 289 291 291 292 293 294 292 293 293 292 288 290 287 286 285 286 287 293 300 299
271 272 273 272 274 273 277 278 278 277 277 278 278 279 281 281 283 284 280 280 279 281 283 283 285 286 288 288 292 293 294 292 291 286 289 289 285 285 285 285 288 295 295
Wind_Speed
7 7 7 8 7 7 8 9 9 9 10 2 3 4 5 6 5 3 3 7 10 10 9 8 7 7 6 7 6 6 5 3 4 4 4 5 6 7 8 9 10 11 12
7 7 7 7 7 7 7 8 9 10 9 6 2 2 4 5 5 5 3 4 9 11 9 9 7 7 8 6 7 6 4 3 2 3 3 4 5 6 6 7 8 10 11
7 6 6 7 7 8 9 8 9 7 7 8 3 2 3 4 5 5 4 3 4 9 10 10 10 9 8 8 8 6 6 5 3 2 1 2 3 4 5 6 7 8 10
9 7 6 7 8 7 7 8 8 9 8 7 7 3 1 3 4 5 4 3 3 3 7 11 11 11 10 9 8 7 7 5 4 3 2 0 1 2 3 4 6 7 9
10 7 6 7 9 7 8 8 7 8 9 7 7 1 2 1 3 3 5 5 4 4 3 7 10 8 10 9 9 9 8 7 6 5 4 2 1 2 2 4 5 7 8
9 8 6 8 8 7 8 8 8 7 6 8 5 3 1 2 2 2 3 3 4 4 4 4 4 4 8 7 10 10 9 8 8 7 6 4 3 2 2 3 4 6 8
9 8 7 8 8 7 8 9 6 8 5 10 3 3 1 4 2 2 2 2 4 5 4 4 3 3 4 9 7 9 10 10 9 9 8 6 5 4 3 3 4 6 7
8 8 8 8 9 7 9 10 11 5 4 8 5 2 4 3 2 1 0 1 4 3 4 5 5 5 4 4 5 9 10 11 11 10 10 8 7 6 5 4 4 5 6
7 7 8 7 7 7 7 8 9 11 6 5 12 3 3 2 4 3 3 1 2 2 4 5 5 5 5 4 5 7 9 8 10 11 11 10 9 8 7 6 5 5 6
6 7 7 7 6 5 7 7 7 8 7 8 6 8 6 3 2 4 3 4 3 4 4 3 4 5 5 4 6 7 8 10 12 13 13 12 11 10 9 8 6 5 4
6 7 8 7 7 6 7 8 8 8 7 5 6 5 4 5 4 1 3 4 3 3 5 4 4 5 6 5 5 6 12 12 16 16 16 15 13 11 10 10 8 4 3
3 5 6 6 6 7 7 7 7 7 8 7 6 6 4 3 5 4 3 6 5 2 2 4 5 6 5 5 6 11 13 14 17 18 18 17 15 13 12 11 8 4 1
3 5 5 6 5 6 6 6 6 7 5 6 7 6 4 3 3 3 3 8 7 3 1 3 5 6 6 6 7 11 13 16 17 20 20 19 18 13 13 11 10 5 3
1 3 4 5 5 6 5 6 4 4 6 5 8 7 6 6 5 4 4 4 7 4 3 4 2 4 5 6 9 14 10 17 17 19 21 20 16 13 9 10 8 7 4
1 4 4 4 5 5 5 5 3 4 4 3 4 4 5 5 6 4 4 5 2 3 7 4 3 2 4 3 4 6 9 11 18 18 18 17 14 10 10 10 10 8 7
2 2 4 4 4 4 5 5 4 4 5 4 4 6 4 5 6 5 5 6 5 4 4 3 7 6 3 2 6 7 9 10 15 19 18 17 16 11 11 12 12 10 9
2 1 2 3 3 4 5 5 5 5 6 6 6 7 8 7 5 5 5 5 5 5 6 5 6 10 5 4 5 5 7 7 8 16 18 18 18 14 13 13 13 12 11
3 2 0 1 2 3 4 4 4 5 5 5 7 6 7 7 8 6 5 7 8 7 7 10 10 8 8 4 3 6 4 6 7 9 17 18 18 16 15 14 14 13 12
5 4 2 1 2 3 4 4 4 4 5 5 5 5 6 6 7 7 8 7 7 7 6 7 8 7 5 1 4 3 5 7 5 7 12 17 18 17 17 16 16 15 14
6 5 3 1 2 3 4 5 5 5 5 4 5 5 6 7 7 8 8 8 8 8 8 8 8 9 7 2 2 5 7 3 4 3 7 9 13 16 18 18 17 16 14
5 5 4 3 3 4 4 4 4 5 5 4 4 5 5 10 17 13 9 11 12 10 9 8 9 8 8 6 5 5 6 3 4 6 3 6 6 7 8 14 12 16 16
5 5 5 4 4 4 7 10 8 4 3 5 5 5 5 10 9 16 18 18 15 11 13 10 9 10 11 10 7 7 9 4 6 2 5 6 5 6 5 5 13 17 17
6 6 5 5 5 5 9 9 10 4 5 4 6 6 6 6 11 8 14 17 16 18 18 13 14 12 12 10 11 11 9 6 7 3 1 4 2 5 3 5 16 18 18
8 5 5 5 5 5 8 9 10 5 4 5 7 6 6 7 7 11 10 10 11 12 12 10 13 14 10 10 12 13 12 13 4 2 3 4 2 2 2 3 15 17 18
5 5 4 4 5 5 10 10 9 5 7 8 6 6 5 7 12 16 10 11 12 10 13 20 21 25 23 23 19 10 10 8 9 3 4 1 1 1 3 3 4 16 17
5 5 6 5 8 5 10 13 11 5 7 6 7 6 12 11 15 15 11 11 13 11 10 14 13 15 17 17 22 12 10 12 8 3 5 6 3 3 2 3 3 5 7
Wind_Direction
357 349 349 358 354 358 0 346 349 343 334 304 252 193 174 183 187 191 195 195 156 152 165 165 175 153 160 142 137 129 136 122 108 89 75 65 53 52 46 38 33 31 29
353 355 349 354 352 348 352 350 344 343 343 333 213 265 224 190 187 187 199 194 174 163 175 161 173 173 172 158 156 155 162 163 147 105 85 60 52 52 46 37 32 29 26
357 353 348 351 348 346 349 356 355 335 342 351 289 205 248 230 190 190 192 194 192 172 167 169 188 183 176 186 188 184 183 184 189 165 86 68 48 51 48 34 28 27 24
0 355 356 354 344 345 354 355 355 339 345 343 331 236 202 260 213 189 182 193 200 193 179 178 192 185 186 192 209 196 202 200 206 213 239 6 19 35 38 28 22 21 22
1 358 353 349 351 355 2 356 355 349 333 341 326 277 209 281 251 187 189 194 206 207 193 188 188 185 182 205 205 203 203 214 223 229 241 260 303 345 10 9 10 16 16
1 360 359 358 355 3 4 356 353 353 331 325 344 21 300 74 295 273 208 191 205 219 216 197 184 179 190 211 226 212 207 208 227 233 240 242 263 293 323 339 358 8 6
4 3 5 1 2 3 5 358 334 351 340 343 319 326 37 70 9 298 333 259 229 227 223 217 199 206 183 211 234 243 221 218 227 235 244 243 248 263 283 309 339 353 356
9 15 8 3 2 1 8 8 9 339 331 346 329 9 339 35 16 322 32 324 285 286 243 236 218 210 195 208 240 251 253 228 231 228 236 238 245 252 262 279 305 330 350
14 13 11 10 2 4 11 1 4 12 349 322 339 2 339 5 353 351 348 300 266 274 287 277 252 235 222 198 204 247 265 258 254 246 235 232 236 247 255 266 287 319 345
18 18 12 10 8 9 11 6 5 7 352 349 340 356 13 332 343 354 355 331 303 269 245 257 272 257 239 219 207 208 248 265 261 260 261 242 230 238 249 256 274 303 339
18 14 12 4 7 9 6 1 3 6 11 7 344 339 2 319 19 62 312 300 294 269 242 222 227 244 249 222 212 216 217 235 251 254 259 263 242 233 241 252 261 284 331
19 17 11 6 3 1 4 356 353 355 8 16 343 340 11 355 358 6 343 294 268 262 295 250 230 225 225 224 218 207 216 222 235 245 253 257 259 246 237 246 257 252 262
12 9 8 9 360 355 353 359 360 354 8 2 340 342 317 339 318 5 311 325 318 306 263 243 253 250 234 209 217 209 216 222 229 237 246 252 255 255 241 238 255 216 217
28 16 9 4 357 355 358 356 356 2 356 338 345 347 348 352 347 322 346 316 319 316 294 245 156 258 256 245 239 207 221 217 223 233 240 250 254 254 217 218 230 209 209
56 35 17 6 359 354 349 356 3 346 335 330 315 334 329 333 352 318 298 307 341 321 326 318 299 158 270 261 255 241 242 227 218 225 229 233 247 254 215 193 187 195 202
107 36 21 12 359 350 347 355 349 333 352 349 352 339 345 334 328 333 326 305 264 279 254 336 324 284 215 255 254 236 241 233 226 225 220 218 223 219 203 185 183 190 205
135 64 22 6 354 346 352 353 341 357 347 344 349 350 338 332 334 319 311 306 298 288 287 303 298 316 280 245 231 245 245 235 242 235 225 213 217 207 196 192 186 191 204
189 195 181 352 341 338 342 342 330 327 330 334 333 333 330 332 329 319 307 320 308 333 319 308 314 312 305 307 277 277 278 244 238 237 231 220 211 203 196 196 189 190 197
196 206 194 303 331 327 325 310 294 294 297 298 295 303 304 317 318 322 327 313 313 309 312 296 295 296 292 313 311 285 277 252 240 239 239 231 217 204 197 199 192 190 190
190 199 196 241 273 281 293 278 270 282 283 289 285 302 311 314 314 309 306 299 304 305 307 306 296 296 300 312 274 294 291 288 273 225 244 242 223 212 201 201 193 186 185
196 188 194 215 235 256 251 251 260 264 271 293 300 294 309 314 314 315 315 317 313 308 303 297 295 295 308 303 323 318 280 267 264 223 222 234 225 210 210 202 192 181 184
192 195 209 212 227 267 281 297 302 275 302 305 303 304 293 305 299 318 314 310 302 301 301 304 302 295 296 300 305 302 282 286 302 98 232 236 209 203 193 185 181 184 182
180 200 209 217 230 226 275 290 300 303 298 289 296 297 302 309 317 302 301 302 306 298 291 293 292 288 292 302 299 294 306 271 268 291 155 266 231 223 180 192 183 183 180
191 190 207 217 232 255 274 289 299 297 286 283 275 279 283 294 292 300 307 307 306 305 300 298 299 291 289 312 305 301 293 290 288 215 216 238 211 251 187 201 195 181 178
174 181 215 228 237 265 280 284 291 293 286 280 272 264 267 280 289 298 311 310 299 292 296 298 302 308 307 304 299 300 285 262 276 259 208 179 209 143 264 192 213 183 183
187 206 223 212 234 248 277 288 292 278 280 281 279 267 280 285 293 308 304 296 297 301 303 302 296 298 295 290 285 278 286 263 251 278 200 196 170 152 252 219 172 179 184